Date String (YYYY-MM-DD hh:mm:ss) UTC,Instrument flags,Ambient pressure (hPa),Sample flow (lpm),Bypass flow (lpm),Sample temperature (°C),Ambient temperature (°C),ASC tube jacket temperature (°C),LED temperature (°C),Box temperature (°C),Sample RH (%),Span deviation,Mass concentration (μg/m³),Mass concentration (μg/m³),Mass concentration (μg/m³)
DateTimeUTC,F1_M11,P_M11,Q1_M11,Q2_M11,T1_M11,T2_M11,T3_M11,T4_M11,T5_M11,U1_M11,ZSPAN_M11,X0_M11,X2_M11,X1_M11
2022-08-19 17:00:00,,0829.3,5.00,0.00,30.4,28.4,00.0,39.1,32.0,25.1,0000.0,0017.66,0007.49,0006.23
2022-08-19 17:01:00,,0829.3,4.98,0.00,30.4,28.0,00.0,39.1,32.0,25.3,0000.0,0017.64,0007.53,0006.23
2022-08-19 17:02:00,,0829.3,5.00,0.00,30.3,28.0,00.0,39.1,32.0,24.9,0000.0,0018.71,0007.54,0006.24
2022-08-19 17:03:00,,0829.2,5.01,0.00,30.2,28.1,00.0,39.1,31.9,25.5,0000.0,0018.70,0007.52,0006.24
2022-08-19 17:04:00,,0829.3,5.00,0.00,30.2,28.3,00.0,39.0,31.9,25.6,0000.0,0017.71,0007.49,0006.24
2022-08-19 17:05:00,,0829.4,5.01,0.00,30.2,28.4,00.0,39.0,32.0,25.2,0000.0,0018.35,0007.51,0006.23
2022-08-19 17:06:00,,0829.2,4.99,0.00,30.2,28.6,00.0,39.0,32.0,25.9,0000.0,0018.02,0007.53,0006.22
2022-08-19 17:07:00,,0829.3,4.99,0.00,30.2,28.7,00.0,39.0,32.1,25.1,0000.0,0016.95,0007.53,0006.22
2022-08-19 17:08:00,,0829.3,5.00,0.00,30.2,28.9,00.0,39.0,32.1,25.3,0000.0,0016.41,0007.42,0006.21
2022-08-19 17:09:00,,0829.3,5.01,0.00,30.3,29.0,00.0,39.0,32.1,25.7,0000.0,0017.23,0007.43,0006.19
2022-08-19 17:10:00,,0829.3,5.01,0.00,30.3,29.1,00.0,39.1,32.2,25.8,0000.0,0017.21,0007.45,0006.19
2022-08-19 17:11:00,,0829.3,5.00,0.00,30.3,29.2,00.0,39.1,32.2,25.9,0000.0,0018.72,0007.49,0006.17
2022-08-19 17:12:00,,0829.3,5.00,0.00,30.4,29.3,00.0,39.1,32.3,26.5,0000.2,0019.11,0007.48,0006.16
2022-08-19 17:13:00,,0829.2,5.00,0.00,30.4,29.4,00.0,39.1,32.3,25.9,0000.5,0018.11,0007.43,0006.15
2022-08-19 17:14:00,,0829.3,5.00,0.00,30.4,29.5,00.0,39.1,32.3,25.0,0000.0,0017.18,0007.39,0006.14
2022-08-19 17:15:00,,0829.3,5.00,0.00,30.4,29.4,00.0,39.1,32.3,24.5,0000.0,0017.59,0007.42,0006.14
2022-08-19 17:16:00,,0829.3,5.00,0.00,30.4,28.8,00.0,39.1,32.2,24.8,0000.0,0016.92,0007.38,0006.15
2022-08-19 17:17:00,,0829.4,5.00,0.00,30.3,28.2,00.0,39.1,32.0,25.2,0000.0,0017.46,0007.35,0006.14
2022-08-19 17:18:00,,0829.4,4.99,0.00,30.3,28.0,00.0,39.1,32.0,25.5,0000.0,0018.00,0007.32,0006.15
2022-08-19 17:19:00,,0829.3,5.00,0.00,30.2,28.0,00.0,39.0,31.9,24.7,0000.0,0017.69,0007.33,0006.15
2022-08-19 17:20:00,,0829.3,5.01,0.00,30.2,28.1,00.0,39.0,31.9,24.8,0000.0,0016.69,0007.30,0006.16
2022-08-19 17:21:00,,0829.3,4.99,0.00,30.2,28.3,00.0,39.0,31.9,25.2,0000.0,0017.52,0007.27,0006.16
2022-08-19 17:22:00,,0829.3,5.00,0.00,30.2,28.5,00.0,39.0,32.0,25.4,0000.0,0016.56,0007.25,0006.17
2022-08-19 17:23:00,,0829.3,5.01,0.00,30.2,28.6,00.0,39.0,32.0,25.2,0000.0,0015.87,0007.22,0006.18
2022-08-19 17:24:00,,0829.2,4.99,0.00,30.2,28.8,00.0,39.0,32.1,25.6,0000.0,0015.55,0007.23,0006.17
2022-08-19 17:25:00,,0829.3,4.99,0.00,30.2,28.9,00.0,39.0,32.1,25.5,0000.0,0015.96,0007.28,0006.19
2022-08-19 17:26:00,,0829.2,5.00,0.00,30.2,29.0,00.0,39.0,32.1,25.2,0000.0,0015.56,0007.30,0006.20
2022-08-19 17:27:00,,0829.2,4.99,0.00,30.3,29.1,00.0,39.0,32.2,24.7,0000.0,0015.17,0007.29,0006.20
2022-08-19 17:28:00,,0829.3,5.00,0.00,30.3,29.2,00.0,39.0,32.2,24.7,0000.0,0014.73,0007.30,0006.20
2022-08-19 17:29:00,,0829.2,5.00,0.00,30.3,29.3,00.0,39.1,32.2,24.9,0000.0,0015.49,0007.35,0006.21
2022-08-19 17:30:00,,0829.3,5.00,0.00,30.4,29.4,00.0,39.1,32.3,25.4,0000.0,0015.79,0007.40,0006.22
2022-08-19 17:31:00,,0829.3,5.00,0.00,30.4,29.5,00.0,39.1,32.3,25.4,0000.0,0016.28,0007.44,0006.23
2022-08-19 17:32:00,,0829.3,5.00,0.00,30.4,29.5,00.0,39.1,32.3,25.0,0000.0,0016.78,0007.45,0006.24
2022-08-19 17:33:00,,0829.3,5.02,0.00,30.4,28.8,00.0,39.1,32.1,25.3,0000.0,0017.24,0007.45,0006.25
2022-08-19 17:34:00,,0829.2,5.00,0.00,30.3,28.1,00.0,39.0,32.0,25.4,0000.0,0017.31,0007.48,0006.26
2022-08-19 17:35:00,,0829.2,4.99,0.00,30.3,27.9,00.0,39.0,31.9,25.1,0000.0,0018.85,0007.57,0006.28
2022-08-19 17:36:00,,0829.2,5.01,0.00,30.2,27.9,00.0,39.0,31.8,25.3,0000.0,0018.84,0007.61,0006.31
2022-08-19 17:37:00,,0829.2,5.00,0.00,30.1,28.0,00.0,39.0,31.8,25.8,0000.0,0019.68,0007.67,0006.35
2022-08-19 17:38:00,,0829.2,4.99,0.00,30.1,28.2,00.0,39.0,31.9,25.7,0000.0,0019.99,0007.74,0006.39
2022-08-19 17:39:00,,0829.2,5.00,0.00,30.1,28.3,00.0,39.0,31.9,25.6,0000.0,0020.72,0007.81,0006.43
2022-08-19 17:40:00,,0829.2,4.99,0.00,30.1,28.5,00.0,39.0,32.0,26.3,0000.0,0019.43,0007.85,0006.46
2022-08-19 17:41:00,,0829.2,5.00,0.00,30.1,28.7,00.0,39.0,32.0,26.2,0000.0,0019.50,0007.88,0006.48
2022-08-19 17:42:00,,0829.2,5.01,0.00,30.2,28.8,00.0,39.0,32.0,25.8,0000.0,0020.30,0007.95,0006.53
2022-08-19 17:43:00,,0829.2,4.99,0.00,30.2,28.9,00.0,39.0,32.1,25.8,0000.0,0019.46,0008.02,0006.56
2022-08-19 17:44:00,,0829.2,4.99,0.00,30.2,29.1,00.0,39.0,32.1,26.6,0000.0,0019.37,0008.15,0006.61
2022-08-19 17:45:00,,0829.2,5.00,0.00,30.2,29.2,00.0,39.0,32.2,26.3,0000.0,0021.26,0008.20,0006.64
2022-08-19 17:46:00,,0829.2,5.01,0.00,30.3,29.2,00.0,39.0,32.2,26.2,0000.0,0020.33,0008.12,0006.65
2022-08-19 17:47:00,,0829.2,5.00,0.00,30.3,29.3,00.0,39.0,32.2,25.7,0000.0,0019.98,0008.08,0006.64
2022-08-19 17:48:00,,0829.1,5.00,0.00,30.3,29.4,00.0,39.1,32.3,25.5,0000.0,0018.93,0008.03,0006.62
2022-08-19 17:49:00,,0829.1,5.00,0.00,30.4,29.2,00.0,39.0,32.2,26.0,0000.0,0018.79,0007.95,0006.61
2022-08-19 17:50:00,,0829.1,5.01,0.00,30.3,28.4,00.0,39.0,32.0,25.6,0000.0,0018.32,0007.86,0006.60
2022-08-19 17:51:00,,0829.1,5.01,0.00,30.2,28.0,00.0,39.0,31.9,25.8,0000.0,0018.65,0007.83,0006.58
2022-08-19 17:52:00,,0829.0,5.00,0.00,30.2,27.9,00.0,38.9,31.9,26.6,0000.0,0020.15,0007.87,0006.59
2022-08-19 17:53:00,,0829.0,4.99,0.00,30.1,28.0,00.0,38.9,31.8,26.3,0000.0,0019.55,0007.83,0006.58
2022-08-19 17:54:00,,0829.0,5.00,0.00,30.1,28.1,00.0,38.9,31.8,26.2,0000.0,0018.88,0007.78,0006.56
2022-08-19 17:55:00,,0829.0,5.00,0.00,30.1,28.3,00.0,38.9,31.9,26.3,0000.0,0019.34,0007.71,0006.54
2022-08-19 17:56:00,,0829.0,5.00,0.00,30.1,28.5,00.0,38.9,31.9,26.1,0000.0,0018.36,0007.64,0006.53
2022-08-19 17:57:00,,0829.0,5.00,0.00,30.1,28.6,00.0,38.9,32.0,26.3,0000.0,0017.42,0007.66,0006.53
2022-08-19 17:58:00,,0829.0,4.99,0.00,30.1,28.8,00.0,38.9,32.0,26.8,0000.0,0017.40,0007.66,0006.53
2022-08-19 17:59:00,,0829.0,5.01,0.00,30.2,28.9,00.0,38.9,32.1,25.8,0000.0,0017.48,0007.64,0006.52
